OC Classic #1 - Whiting Time Trial
Skip Navigation Links
19 March 2016
HyperLink
Page 1 of 4 (152 items)
[1]234
Pos
Race No
Fav
Share
Name
Time
Category
Cat Pos
Age
Gender
Gen Pos
Club
Points
Pace
11Joel TITIUS00:23:16.59Elite Men123Male1Team Baghouse | Rock N Road Cyclery10013.9 m/hr
24Chad GONSER00:23:36.33Elite Men231Male2360fly | Bike Religion9013.7 m/hr
35Daniel EITMAN00:25:40.59Elite Men343Male3Kasel Cycling | JAX Bicycles8212.6 m/hr
4114Rhio GRIEGO00:25:42.09SuperSport 45+146Male4Buena Park | Fullerton Bicycles10012.6 m/hr
53Eric WILLIAMS00:25:44.08Elite Men436Male5Corridor Recycling | Velo Pacific7512.6 m/hr
67Todd BROWN00:26:01.08Elite Men554Male6PEDAL Industries6912.5 m/hr
711Jane KERNER00:26:05.34Elite Women126Female1Team Baghouse10012.4 m/hr
86Brent FRANZE00:26:07.09Elite Men617Male7Giant Co-Factory | Fullerton Bicycles6312.4 m/hr
9107Michael GOULD00:26:08.34SuperSport 44-138Male8PEDAL Industries10012.4 m/hr
9250Nick KNEISLY00:26:08.34SuperSport 44-129Male8Troy Lee Designs10012.4 m/hr
11105Tim WILSON00:26:10.34SuperSport 44-337Male10Pure Ride Cycles8212.4 m/hr
12104Jason HARDY00:26:21.34SuperSport 44-438Male11Troy Lee Designs7512.3 m/hr
13113Jeff OLSON00:26:23.59SuperSport 45+248Male12thinkASG MTB Club9012.3 m/hr
142Austin REITH00:26:34.08Elite Men719Male13Team Whistler5812.2 m/hr
15109Sheldon PRYOR00:26:34.84SuperSport 44-517Male14Foothill HS6912.2 m/hr
16106Clint ALLEN00:26:44.58SuperSport 44-633Male15 6312.1 m/hr
17157Sean SMITH00:26:45.60Sport 40-49149Male16Linked Cycling10012.1 m/hr
18115Steve SMITH00:26:50.34SuperSport 45+353Male17thinkASG MTB Club8212.1 m/hr
19102Ben ISLAS00:27:03.08SuperSport 44-738Male18RedMonkey Sports5812.0 m/hr
20108Nathan HERONEN00:27:04.34SuperSport 44-834Male19The Path Bike Shop5312.0 m/hr
21118Michael BELLE00:27:15.59SuperSport 45+445Male20 7511.9 m/hr
22103Shawn HUBER00:27:24.33SuperSport 44-938Male21Pure Ride Cycles4911.8 m/hr
23133Tim GONSALVES00:27:35.84Sport 30-39138Male22The Path Bike Shop10011.7 m/hr
24173Russell SHAPLEY00:27:36.59Sport 50-54154Male23Team Simple Green | Cannondale | Stage 2110011.7 m/hr
25251Gerrit SLINGERLAND00:27:38.84Singlespeed159Male24RokForm10011.7 m/hr
26110Ben SPURGEON00:27:45.59SuperSport 45+545Male25 6911.7 m/hr
27124Addison SIMIS00:27:46.33Sport 19-116Male26 10011.7 m/hr
28200Matthew WOODWARD00:27:48.35Sport 19-216Male27Mach 59011.7 m/hr
29165Ian BARE00:27:50.09Sport 40-49241Male28Linked Cycling9011.6 m/hr
30151Peter OSBORN00:27:59.84Sport 40-49343Male29The Path Bike Shop8211.6 m/hr
31135Manuel DOBLADO00:28:06.34Sport 30-39238Male30thinkASG MTB Club9011.5 m/hr
32112Randy SCHWARZ00:28:07.34SuperSport 45+648Male31Santiago Cycling | Blue Park Crew6311.5 m/hr
33150Blake WEAVER00:28:07.60Sport 40-49448Male32RedMonkey Sports7511.5 m/hr
34360Evan EISENHART00:28:21.09Beginner 29-115Male33SoCal Composite10011.4 m/hr
35117Jan ZUIDEMA00:28:22.58SuperSport 45+749Male34Z3 Racing5811.4 m/hr
368Kym SLINGERLAND00:28:29.34Elite Women255Female2RokForm9011.4 m/hr
37129Gabriel MARGINEAN00:28:30.34Sport 30-39336Male35MarginX8211.4 m/hr
38158Mark KELLEHER00:28:32.09Sport 40-49547Male36 6911.4 m/hr
39111John POTTS00:28:33.84SuperSport 45+845Male37 5311.3 m/hr
40161Satoru TERADA00:28:35.59Sport 40-49644Male38Troy Lee Designs6311.3 m/hr
41101David WATERS00:28:43.83SuperSport 44-1038Male39thinkASG MTB Club4511.3 m/hr
42353Phillip HELBERG00:28:44.60Beginner 29-222Male40 9011.3 m/hr
43164Brandon BROWN00:29:03.09Sport 40-49742Male41Kasel Cycling | JAX Bicycles5811.2 m/hr
44180David LE ANCE00:29:06.84Sport 55-59156Male42Velosport | RideBiker Alliance10011.1 m/hr
45120Greg BROWN00:29:10.84SuperSport 45+952Male43RokForm4911.1 m/hr
46152Ray FOLLAND00:29:15.10Sport 40-49848Male44RedMonkey Sports5311.1 m/hr
47357Nicholas PAULSEN00:29:17.85Beginner 29-317Male45 8211.1 m/hr
48132Chris SMITH00:29:22.06Sport 30-39430Male46Kasel Cycling | JAX Bicycles7511.0 m/hr
49123Cole SMITH00:29:25.08Sport 19-315Male47thinkASG MTB Club8211.0 m/hr
50255Greg LASIEWSKI00:29:26.35Clydesdales149Male48thinkASG MTB Club10011.0 m/hr
Page 1 of 4 (152 items)
[1]234